{"data":{"norad_id":40971,"intl_designator":"2015-058H","name":"LMRST-SAT","alt_names":[],"object_type":"PAYLOAD","status":"ACTIVE","operator":null,"country":"US","launch_date":"2015-10-08","launch_site_code":"AFWTR","launch_vehicle":null,"mission":null,"orbit_class":"UNKNOWN","rcs_meters":null,"size_class":null,"mass_kg":null,"dimensions":null,"purposes":["tech_demo"],"wikipedia_slug":null,"has_3d_model":false,"image_url":null,"decayed_at":null,"tle_current":{"epoch":"2026-05-24T23:00:57.129984Z","epoch_age_seconds":85344,"freshness":"FRESH","line1":"1 40971U 15058H   26144.95899456  .00002864  00000+0  26411-3 0  9998","line2":"2 40971  64.7769 347.4568 0131135  67.7365 293.7593 14.90441869110092","mean_motion":14.90441869,"eccentricity":0.0131135,"inclination_deg":64.7769,"raan_deg":347.4568,"arg_perigee_deg":67.7365,"mean_anomaly_deg":293.7593,"bstar":0.00026411,"rev_number":11009,"period_min":96.615643316982,"perigee_km":505.09415956675,"apogee_km":688.01945403775,"semimajor_km":6974.6938068022,"source":"CELESTRAK","updated_at":"2026-05-25T13:38:25.526320Z"}}}